Tracking 19634 objects as of 21-May-2019
HD Live streaming from Space Station
objects crossing your sky now

OPS 8180 (STP RADSAT)

Track OPS 8180 (STP RADSAT) now!
10-day predictions
OPS 8180 (STP RADSAT) is classified as:


NORAD ID: 6217
Int'l Code: 1972-076B
Perigee: 671.8 km
Apogee: 686.1 km
Inclination: 98.7 °
Period: 98.2 minutes
Semi major axis: 7049 km
RCS: 1.4995 m2 (large)
Launch date: October 2, 1972
Source: United States (US)
Launch site: AIR FORCE WESTERN TEST RANGE (AFWTR)
aabbcc
Your satellite tracking list
Your tracking list is empty




NASA's NSSDC Master Catalog

Two Line Element Set (TLE):
1  6217U 72076B   19141.10154788  .00000000  00000-0  98379-5 0  9999
2  6217  98.6739 315.8865 0010140 168.2993 191.8447 14.66642856480521
Source of the keplerian elements: AFSPC